Location: Beddau
(51.5575°N, 3.3561°W)
Time: 10:48:16
(UTC+00:00)

CZ-4 R/B - Pass Details

Date: 03 March 2021
Orbit: 532 x 597 km, 97.7° (Epoch: 17 April)

Event Time Altitude Azimuth Distance (km) Brightness Sun altitude
Rises 19:39:36 0° 199° (SSW) 2,672 4.9 -16.6°
Reaches altitude 10° 19:42:03 10° 215° (SW) 1,792 4.2 -17.0°
Maximum altitude 19:45:06 22° 267° (W) 1,220 4.0 -17.4°
Drops below altitude 10° 19:48:12 10° 320° (NW) 1,824 4.7 -17.9°
Sets 19:50:44 0° 335° (NNW) 2,735 5.4 -18.3°
